Content
SEND FEEDBACK

Daily
Averages
Monthly
Summary
United States of America

JEFFERSON, NEW HAMPSHIRE


Home > North America > United States > New Hampshire
Elevation: 1140 feet     Latitude: 44 22N     Longitude: 071 28W

WEATHER
 
SELECT A DAY
Number of Records: 220,013;   Date Range: 6/28/96 - 9/18/14
 
SHARE

PRINT THIS DATA

[ ← Previous Day ]
WEATHER ALMANAC - FEBRUARY 13, 2013
[ Next Day → ]
[ °C ]   °F
Weather ElementAverageHighLow
Temperature30.4 °F33.8 °F (12:24 pm)25 °F (9:52 pm)
Dewpoint22.3 °F25 °F (5:52 pm)21 °F (12:52 pm)
Humidity72.5 %92 % (9:52 pm)60 % (12:24 pm)
Barometer29.78 in29.83 in (8:52 am)29.74 in (12:37 pm)
Wind Speed2.7 mph6.9 mph (10:52 am)
Weather ElementAverage
Visibility10 mi
Wind DirectionESE (125 °)

Weather ElementTotal
Precipitation---
Heating Degree Days35.6 (Base 65)
Averaged from 30 records on February 13, 2013
WEATHER CONDITIONS BREAKOUT
WIND DIRECTION BREAKOUT
WEATHER BY HOUR - FEBRUARY 13, 2013
[ °C ]   °F
Local TimeTemperatureDewpointHumidityBarometerVisibilityWind DirectionWind SpeedGust SpeedPrecipitationEventsConditions
12:52 AM30.0 °F24.1 °F79 %29.79 in10.0 miWSW (240°)5.8 mph0.00 inOvercast
1:52 AM30.0 °F24.1 °F79 %29.79 in10.0 miCalm0.00 inOvercast
2:52 AM30.0 °F23.0 °F75 %29.79 in10.0 miWSW (240°)5.8 mphOvercast
3:52 AM30.0 °F21.9 °F72 %29.80 in10.0 miVariable3.5 mphOvercast
4:52 AM30.0 °F21.9 °F72 %29.81 in10.0 miCalmOvercast
5:52 AM28.9 °F21.9 °F75 %29.81 in10.0 miCalmOvercast
6:35 AM28.4 °F21.2 °F74 %29.77 in10.0 miCalmOvercast
6:52 AM28.9 °F21.9 °F75 %29.81 in10.0 miSW (220°)3.5 mphOvercast
7:52 AM28.9 °F21.9 °F75 %29.82 in10.0 miSW (220°)3.5 mphOvercast
8:52 AM30.0 °F21.9 °F72 %29.83 in10.0 miWSW (250°)4.6 mphOvercast
9:52 AM30.9 °F21.9 °F69 %29.83 in10.0 miWSW (240°)5.8 mphOvercast
10:52 AM32.0 °F23.0 °F69 %29.82 in10.0 miWSW (240°)6.9 mphOvercast
11:13 AM32.0 °F21.2 °F64 %29.77 in10.0 miVariable4.6 mphOvercast
11:24 AM32.0 °F21.2 °F64 %29.77 in10.0 miWSW (250°)4.6 mphOvercast
11:52 AM33.1 °F21.9 °F64 %29.80 in10.0 miWNW (300°)5.8 mphOvercast
12:24 PM33.8 °F21.2 °F60 %29.75 in10.0 miWNW (300°)4.6 mphOvercast
12:37 PM33.8 °F21.2 °F60 %29.74 in10.0 miNNW (330°)5.8 mphOvercast
12:52 PM33.1 °F21.0 °F61 %29.78 in10.0 miNNW (330°)5.8 mphOvercast
1:08 PM33.8 °F21.2 °F60 %29.74 in10.0 miWNW (300°)5.8 mphOvercast
1:52 PM32.0 °F21.0 °F64 %29.78 in10.0 miWNW (290°)5.8 mphOvercast
2:52 PM33.1 °F21.9 °F64 %29.77 in10.0 miCalm0.00 inOvercast
3:52 PM33.1 °F23.0 °F66 %29.75 in10.0 miCalmOvercast
4:52 PM32.0 °F21.9 °F66 %29.75 in10.0 miCalmOvercast
5:52 PM30.0 °F25.0 °F82 %29.77 in10.0 miCalmOvercast
6:52 PM30.0 °F24.1 °F79 %29.76 in10.0 miCalmOvercast
7:52 PM28.9 °F24.1 °F82 %29.76 in10.0 miCalmOvercast
8:52 PM27.0 °F23.0 °F85 %29.76 in10.0 miCalmOvercast
9:52 PM25.0 °F23.0 °F92 %29.76 in10.0 miCalmOvercast
10:52 PM26.1 °F23.0 °F88 %29.76 in10.0 miCalmOvercast
11:52 PM25.0 °F21.9 °F88 %29.75 in10.0 miCalmOvercast
Hourly data recorded from KHIE, located miles away from Jefferson, New Hampshire







STORIES FROM OUR PARTNERS